Flag for Netherlands Weather past 2 weeks in Haarlem, Netherlands

Now
48 °F

Broken clouds.


Feels Like: 41 °F
Forecast: 50 / 53 °F
Wind: 21 mph from Southwest

Location: Amsterdam Schiphol Airport

Current Time: Dec 21, 2014 at 12:10:48 PM

Latest Report: Dec 21, 2014 at 11:55 AM


Visibility: N/A

Pressure: 30.27 "Hg

Humidity: 82%

Dew point: 43 °F

Location of HaarlemLocation

Historic Weather in Haarlem — Graph

°F

Haarlem temperature yesterday

Maximum temperature yesterday: 48 °F (at 11:25 AM)
Minimum temperature yesterday: 45 °F (at 6:55 PM)
Average temperature yesterday: 46 °F

Past Weeks' High & Low Weather Summary

 TemperatureHumidityPressure
High55 °F (Dec 18, 12:55 PM)100% (Dec 6, 8:55 PM)30.33 "Hg (Dec 6, 8:55 PM)
Low28 °F (Dec 9, 5:55 AM)61% (Dec 11, 4:25 PM)29.27 "Hg (Dec 12, 8:25 AM)
Average44 °F84%29.89 "Hg
* Reported Dec 6 10:25 AM — Dec 21 10:55 AM, Haarlem, Weather by CustomWeather, © 2014

Note: Actual official high and low records may vary slightly from our data, if they occured in-between our weather recording intervals... More about our weather records

Advertising

Haarlem weather history for previous 24 hours

 ConditionsComfort  
Time TempWeatherWind HumidityBarometerVisibility
10:55 AM
Dec 21
46 °FMore clouds than sun.16 mph87%30.27 "HgN/A
10:25 AM46 °FMore clouds than sun.14 mph87%30.30 "HgN/A
9:55 AM45 °FMore clouds than sun.13 mph93%30.30 "HgN/A
9:25 AM45 °FMore clouds than sun.12 mph93%30.30 "HgN/A
8:55 AM45 °FOvercast.12 mph93%30.30 "HgN/A
8:25 AM45 °FPassing clouds.12 mph93%30.30 "HgN/A
7:55 AM45 °FPartly cloudy.13 mph93%30.30 "HgN/A
7:25 AM45 °FSprinkles. Passing clouds.13 mph93%30.30 "HgN/A
6:55 AM43 °FPassing clouds.9 mph93%30.33 "HgN/A
6:25 AM41 °FPassing clouds.8 mph93%30.33 "HgN/A
5:55 AM41 °FPassing clouds.10 mph93%30.33 "HgN/A
5:25 AM41 °FPassing clouds.9 mph87%30.33 "HgN/A
4:55 AM43 °FPassing clouds.8 mph87%30.33 "HgN/A
4:25 AM45 °FPassing clouds.10 mph81%30.33 "HgN/A
3:55 AM43 °FPassing clouds.10 mph87%30.33 "HgN/A
3:25 AM45 °FPassing clouds.10 mph87%30.33 "HgN/A
2:55 AM43 °FPassing clouds.10 mph87%30.33 "HgN/A
2:25 AM45 °FPassing clouds.12 mph81%30.33 "HgN/A
1:55 AM45 °FPassing clouds.14 mph87%30.33 "HgN/A
1:25 AM43 °FPassing clouds.12 mph87%30.33 "HgN/A
12:55 AM45 °FPassing clouds.15 mph81%30.30 "HgN/A
12:25 AM46 °FPassing clouds.12 mph82%30.30 "HgN/A
11:55 PM
Dec 20
45 °FPassing clouds.10 mph76%30.30 "HgN/A
11:25 PM45 °FPassing clouds.13 mph76%30.30 "HgN/A
10:55 PM45 °FPassing clouds.13 mph76%30.27 "HgN/A
10:25 PM45 °FPassing clouds.15 mph76%30.27 "HgN/A
9:55 PM45 °FPassing clouds.16 mph76%30.27 "HgN/A
9:25 PM45 °FPassing clouds.17 mph76%30.24 "HgN/A
8:55 PM45 °FPassing clouds.16 mph76%30.24 "HgN/A
8:25 PM45 °FPassing clouds.18 mph76%30.21 "HgN/A
7:55 PM46 °FPassing clouds.21 mph76%30.21 "HgN/A
7:25 PM46 °FSprinkles. Passing clouds.18 mph76%30.18 "HgN/A
6:55 PM45 °FRain showers. Passing clouds.25 mph81%30.18 "Hg4 mi
6:25 PM46 °FPassing clouds.24 mph71%30.15 "HgN/A
5:55 PM46 °FPassing clouds.23 mph71%30.12 "HgN/A
5:25 PM46 °FPassing clouds.25 mph71%30.12 "HgN/A
4:55 PM46 °FPassing clouds.22 mph71%30.12 "HgN/A
4:25 PM46 °FScattered showers. Passing clouds.26 mph71%30.09 "HgN/A
3:55 PM46 °FScattered clouds.26 mph76%30.07 "HgN/A
3:25 PM46 °FScattered showers. Scattered clouds.28 mph76%30.07 "HgN/A
2:55 PM48 °FScattered showers. Partly sunny.28 mph71%30.07 "HgN/A
2:25 PM48 °FPassing clouds.26 mph71%30.07 "HgN/A
1:55 PM48 °FScattered clouds.30 mph71%30.04 "HgN/A
1:25 PM48 °FScattered clouds.30 mph71%30.04 "HgN/A
12:55 PM48 °FBroken clouds.29 mph71%30.04 "HgN/A
12:25 PM48 °FBroken clouds.30 mph71%30.04 "HgN/A
Weather by CustomWeather, © 2014

See weather overviewHow to use our weather pages